SWA3072 KMCO-KATL

Flight info

Callsign SWA3072
Flight time N/A
Altitude 40000
Route JEEMY4 PAINN SHRKS LAIRI LARZZ JJEDI4
Aircraft B738/M-SADE2E3GIJ4RWZ/LB1D1

Departure

Time 2026-04-25 15:57
Airport Orlando International Airport (KMCO)

Arrival

Time N/A
Airport Hartsfield Jackson Atlanta International Airport (KATL)
Time Latitude Longitude Altitude Speed Heading
2026-04-25 15:35 28.43373 -81.30099 94 ft 0 kts 45°
2026-04-25 15:49 28.43373 -81.30100 94 ft 0 kts 45°
2026-04-25 15:49 28.43362 -81.30113 95 ft 2 kts 46°
2026-04-25 15:50 28.43350 -81.30126 94 ft 2 kts 46°
2026-04-25 15:50 28.43339 -81.30140 92 ft 2 kts 48°
2026-04-25 15:50 28.43328 -81.30154 93 ft 2 kts 57°
2026-04-25 15:50 28.43324 -81.30171 94 ft 2 kts 123°
2026-04-25 15:51 28.43326 -81.30174 94 ft 0 kts 125°
2026-04-25 15:52 28.43299 -81.30124 93 ft 15 kts 121°
2026-04-25 15:52 28.43282 -81.30008 94 ft 15 kts 83°
2026-04-25 15:53 28.43319 -81.29899 95 ft 14 kts 68°
2026-04-25 15:53 28.43368 -81.29805 94 ft 14 kts 28°
2026-04-25 15:53 28.43462 -81.29806 95 ft 13 kts 359°
2026-04-25 15:53 28.43534 -81.29792 96 ft 9 kts 37°
2026-04-25 15:54 28.43549 -81.29753 97 ft 8 kts 81°
2026-04-25 15:54 28.43550 -81.29710 97 ft 0 kts 90°
2026-04-25 15:56 28.43550 -81.29679 95 ft 12 kts 89°
2026-04-25 15:56 28.43473 -81.29583 97 ft 37 kts 174°
2026-04-25 15:56 28.42940 -81.29579 97 ft 115 kts 179°
2026-04-25 15:57 28.41933 -81.29566 128 ft 174 kts 179°
2026-04-25 15:57 28.40685 -81.29513 996 ft 175 kts 173°
2026-04-25 15:57 28.39551 -81.29048 2023 ft 177 kts 141°
2026-04-25 15:57 28.38800 -81.27820 2454 ft 211 kts 109°
2026-04-25 15:58 28.38714 -81.26097 2856 ft 231 kts 79°
2026-04-25 15:58 28.39432 -81.24384 3265 ft 250 kts 51°
2026-04-25 15:58 28.40615 -81.22876 3844 ft 263 kts 48°
2026-04-25 15:58 28.41899 -81.21330 4591 ft 272 kts 38°
2026-04-25 15:59 28.43608 -81.20500 5554 ft 271 kts
2026-04-25 15:59 28.45457 -81.20845 6413 ft 274 kts 338°
2026-04-25 15:59 28.47225 -81.21677 7272 ft 275 kts 336°
2026-04-25 15:59 28.48999 -81.22511 8197 ft 276 kts 337°
2026-04-25 16:00 28.50795 -81.23328 9050 ft 280 kts 338°
2026-04-25 16:00 28.51386 -81.23590 9326 ft 281 kts 338°
2026-04-25 16:00 28.54490 -81.24923 10523 ft 294 kts 338°
2026-04-25 16:00 28.56495 -81.25758 10712 ft 320 kts 339°
2026-04-25 16:01 28.58598 -81.26620 11058 ft 337 kts 339°
2026-04-25 16:01 28.60792 -81.27507 11752 ft 341 kts 339°
2026-04-25 16:01 28.63035 -81.28408 12625 ft 342 kts 340°
2026-04-25 16:01 28.65280 -81.29306 13434 ft 344 kts 340°
2026-04-25 16:02 28.67548 -81.30211 14150 ft 347 kts 340°
2026-04-25 16:02 28.69847 -81.31129 14780 ft 352 kts 340°
2026-04-25 16:02 28.72169 -81.32055 15410 ft 356 kts 339°
2026-04-25 16:02 28.74528 -81.32997 16034 ft 361 kts 339°
2026-04-25 16:03 28.76881 -81.33937 16653 ft 365 kts 339°
2026-04-25 16:03 28.79290 -81.34899 17286 ft 369 kts 339°
2026-04-25 16:03 28.81768 -81.35890 17906 ft 374 kts 339°
2026-04-25 16:03 28.84210 -81.36867 18466 ft 379 kts 339°
2026-04-25 16:04 28.86713 -81.37868 19023 ft 381 kts 339°
2026-04-25 16:04 28.89219 -81.38871 19622 ft 384 kts 339°
2026-04-25 16:04 28.91750 -81.39885 20209 ft 386 kts 339°
2026-04-25 16:04 28.94299 -81.40888 20754 ft 390 kts 342°
2026-04-25 16:05 28.96960 -81.41566 21298 ft 395 kts 351°
2026-04-25 16:05 28.99704 -81.41863 21860 ft 397 kts 353°
2026-04-25 16:05 29.05257 -81.42400 22871 ft 404 kts 353°
2026-04-25 16:06 29.08070 -81.42703 23392 ft 406 kts 353°
2026-04-25 16:06 29.10889 -81.43012 23833 ft 409 kts 353°
2026-04-25 16:06 29.12803 -81.43205 24107 ft 411 kts 354°
2026-04-25 16:06 29.16601 -81.43566 24619 ft 414 kts 354°
2026-04-25 16:07 29.18509 -81.43742 24874 ft 416 kts 354°
2026-04-25 16:07 29.20464 -81.43923 25132 ft 418 kts 354°
2026-04-25 16:07 29.24320 -81.44282 25648 ft 422 kts 354°
2026-04-25 16:07 29.27254 -81.44558 26041 ft 424 kts 354°
2026-04-25 16:08 29.30198 -81.44837 26405 ft 427 kts 354°
2026-04-25 16:08 29.33173 -81.45120 26764 ft 429 kts 354°
2026-04-25 16:08 29.36159 -81.45404 27131 ft 432 kts 354°
2026-04-25 16:08 29.39161 -81.45690 27470 ft 434 kts 354°
2026-04-25 16:09 29.42177 -81.45978 27820 ft 436 kts 354°
2026-04-25 16:09 29.45213 -81.46268 28175 ft 439 kts 355°
2026-04-25 16:09 29.47974 -81.46532 28467 ft 441 kts 355°
2026-04-25 16:09 29.51036 -81.46825 28791 ft 444 kts 355°
2026-04-25 16:10 29.54123 -81.47120 29107 ft 446 kts 355°
2026-04-25 16:10 29.57222 -81.47416 29440 ft 448 kts 355°
2026-04-25 16:10 29.60336 -81.47708 29756 ft 450 kts 355°
2026-04-25 16:10 29.63463 -81.47992 30056 ft 452 kts 355°
2026-04-25 16:11 29.66601 -81.48273 30373 ft 452 kts 355°
2026-04-25 16:11 29.69724 -81.48553 30768 ft 450 kts 355°
2026-04-25 16:11 29.72842 -81.48833 31158 ft 448 kts 355°
2026-04-25 16:11 29.75955 -81.49115 31508 ft 448 kts 355°
2026-04-25 16:12 29.79062 -81.49397 31821 ft 448 kts 355°
2026-04-25 16:12 29.82175 -81.49679 32154 ft 448 kts 354°
2026-04-25 16:12 29.85272 -81.49961 32529 ft 447 kts 354°
2026-04-25 16:12 29.87326 -81.50152 32776 ft 446 kts 353°
2026-04-25 16:13 29.91390 -81.51020 33174 ft 445 kts 343°
2026-04-25 16:13 29.94349 -81.52063 33506 ft 444 kts 342°
2026-04-25 16:13 29.97288 -81.53146 33862 ft 443 kts 341°
2026-04-25 16:13 30.00212 -81.54231 34150 ft 442 kts 341°
2026-04-25 16:14 30.03145 -81.55310 34407 ft 442 kts 341°
2026-04-25 16:14 30.06072 -81.56376 34691 ft 441 kts 341°
2026-04-25 16:14 30.08993 -81.57429 34993 ft 439 kts 342°
2026-04-25 16:14 30.11913 -81.58477 35265 ft 439 kts 342°
2026-04-25 16:15 30.14832 -81.59522 35498 ft 439 kts 342°
2026-04-25 16:15 30.17749 -81.60566 35744 ft 439 kts 342°
2026-04-25 16:15 30.20660 -81.61608 36014 ft 437 kts 342°
2026-04-25 16:15 30.23563 -81.62647 36263 ft 437 kts 342°
2026-04-25 16:16 30.26465 -81.63688 36476 ft 437 kts 342°
2026-04-25 16:16 30.29366 -81.64730 36714 ft 436 kts 342°
2026-04-25 16:16 30.32267 -81.65771 36970 ft 435 kts 342°
2026-04-25 16:16 30.35156 -81.66810 37166 ft 435 kts 341°
2026-04-25 16:17 30.38053 -81.67852 37341 ft 436 kts 341°
2026-04-25 16:17 30.40946 -81.68893 37552 ft 435 kts 341°
2026-04-25 16:17 30.43831 -81.69932 37778 ft 434 kts 341°
2026-04-25 16:17 30.46719 -81.70973 37947 ft 435 kts 341°
2026-04-25 16:18 30.49614 -81.72017 37945 ft 438 kts 342°
2026-04-25 16:18 30.55427 -81.74115 37949 ft 436 kts 341°
2026-04-25 16:18 30.58310 -81.75166 38161 ft 424 kts 340°
2026-04-25 16:19 30.60937 -81.76215 39575 ft 387 kts 340°
2026-04-25 16:19 30.63502 -81.77270 39073 ft 405 kts 335°
2026-04-25 16:19 30.66103 -81.78708 38519 ft 422 kts 332°
2026-04-25 16:20 30.71419 -81.81820 37996 ft 430 kts 332°
2026-04-25 16:20 30.74105 -81.83395 37967 ft 434 kts 332°
2026-04-25 16:21 30.82247 -81.88139 37930 ft 436 kts 332°
2026-04-25 16:21 30.87660 -81.91281 37924 ft 433 kts 332°
2026-04-25 16:22 30.93047 -81.94409 37939 ft 430 kts 332°
2026-04-25 16:22 30.98401 -81.97525 37939 ft 429 kts 332°
2026-04-25 16:23 31.03713 -82.00619 37934 ft 429 kts 332°
2026-04-25 16:23 31.09057 -82.03737 37937 ft 430 kts 332°
2026-04-25 16:24 31.14417 -82.06867 37955 ft 432 kts 332°
2026-04-25 16:24 31.19815 -82.10024 37955 ft 434 kts 332°
2026-04-25 16:25 31.25233 -82.13197 37954 ft 436 kts 332°
2026-04-25 16:25 31.30683 -82.16393 37956 ft 438 kts 332°
2026-04-25 16:26 31.36102 -82.19574 37953 ft 439 kts 332°
2026-04-25 16:26 31.41580 -82.22794 37948 ft 440 kts 332°
2026-04-25 16:27 31.47055 -82.26016 37954 ft 441 kts 332°
2026-04-25 16:27 31.52538 -82.29248 37947 ft 440 kts 332°
2026-04-25 16:28 31.57997 -82.32470 37956 ft 438 kts 331°
2026-04-25 16:28 31.63432 -82.35682 37952 ft 437 kts 331°
2026-04-25 16:29 31.68850 -82.38888 37951 ft 435 kts 331°
2026-04-25 16:29 31.74253 -82.42090 37943 ft 434 kts 331°
2026-04-25 16:30 31.79642 -82.45287 37698 ft 437 kts 331°
2026-04-25 16:30 31.82369 -82.46908 37225 ft 437 kts 331°
2026-04-25 16:30 31.85082 -82.48520 36668 ft 436 kts 331°
2026-04-25 16:30 31.87779 -82.50124 36171 ft 434 kts 331°
2026-04-25 16:31 31.90424 -82.51697 35791 ft 429 kts 331°
2026-04-25 16:31 31.93085 -82.53281 35353 ft 427 kts 331°
2026-04-25 16:31 31.95701 -82.54896 34939 ft 423 kts 327°
2026-04-25 16:31 31.98097 -82.56872 34510 ft 418 kts 319°
2026-04-25 16:32 32.00302 -82.59099 34092 ft 416 kts 317°
2026-04-25 16:32 32.02470 -82.61345 33643 ft 414 kts 317°
2026-04-25 16:32 32.04621 -82.63582 33186 ft 411 kts 317°
2026-04-25 16:32 32.06760 -82.65795 32762 ft 406 kts 317°
2026-04-25 16:33 32.08868 -82.67963 32350 ft 399 kts 318°
2026-04-25 16:33 32.10945 -82.70090 31965 ft 393 kts 318°
2026-04-25 16:33 32.12998 -82.72188 31575 ft 387 kts 318°
2026-04-25 16:33 32.15021 -82.74254 31203 ft 381 kts 318°
2026-04-25 16:34 32.17009 -82.76284 30835 ft 376 kts 318°
2026-04-25 16:34 32.18973 -82.78289 30467 ft 370 kts 318°
2026-04-25 16:34 32.20911 -82.80271 30125 ft 369 kts 318°
2026-04-25 16:34 32.22882 -82.82289 29738 ft 380 kts 318°
2026-04-25 16:35 32.24911 -82.84368 29300 ft 390 kts 318°
2026-04-25 16:35 32.26959 -82.86465 28859 ft 388 kts 318°
2026-04-25 16:35 32.28961 -82.88516 28454 ft 384 kts 318°
2026-04-25 16:35 32.30973 -82.90580 28037 ft 381 kts 318°
2026-04-25 16:36 32.32968 -82.92628 27646 ft 377 kts 318°
2026-04-25 16:36 32.33637 -82.93314 27513 ft 377 kts 318°
2026-04-25 16:36 32.36908 -82.96674 26863 ft 372 kts 318°
2026-04-25 16:36 32.38855 -82.98676 26491 ft 370 kts 318°
2026-04-25 16:37 32.40796 -83.00674 26120 ft 367 kts 318°
2026-04-25 16:37 32.42713 -83.02649 25745 ft 365 kts 318°
2026-04-25 16:37 32.44623 -83.04619 25367 ft 363 kts 318°
2026-04-25 16:37 32.46524 -83.06580 24996 ft 361 kts 318°
2026-04-25 16:38 32.48412 -83.08529 24625 ft 359 kts 318°
2026-04-25 16:38 32.50294 -83.10474 24247 ft 358 kts 318°
2026-04-25 16:38 32.52162 -83.12405 23869 ft 357 kts 317°
2026-04-25 16:38 32.54031 -83.14338 23480 ft 356 kts 317°
2026-04-25 16:39 32.55893 -83.16264 23048 ft 355 kts 317°
2026-04-25 16:39 32.57746 -83.18182 22647 ft 352 kts 317°
2026-04-25 16:39 32.59588 -83.20091 22263 ft 350 kts 317°
2026-04-25 16:39 32.61390 -83.21958 21928 ft 346 kts 317°
2026-04-25 16:40 32.63194 -83.23829 21551 ft 343 kts 317°
2026-04-25 16:40 32.64987 -83.25690 21185 ft 341 kts 317°
2026-04-25 16:40 32.66765 -83.27537 20823 ft 338 kts 317°
2026-04-25 16:40 32.68536 -83.29377 20464 ft 336 kts 317°
2026-04-25 16:41 32.70293 -83.31203 20114 ft 334 kts 317°
2026-04-25 16:41 32.70863 -83.31797 19999 ft 334 kts 317°
2026-04-25 16:41 32.75495 -83.36620 19053 ft 329 kts 317°
2026-04-25 16:42 32.77192 -83.38388 18713 ft 327 kts 317°
2026-04-25 16:42 32.78917 -83.40187 18371 ft 325 kts 317°
2026-04-25 16:42 32.80597 -83.41940 17995 ft 324 kts 317°
2026-04-25 16:42 32.82286 -83.43703 17608 ft 323 kts 317°
2026-04-25 16:43 32.83964 -83.45455 17238 ft 320 kts 317°
2026-04-25 16:43 32.85637 -83.47203 16894 ft 318 kts 317°
2026-04-25 16:43 32.87291 -83.48933 16588 ft 315 kts 317°
2026-04-25 16:43 32.88933 -83.50651 16238 ft 313 kts 317°
2026-04-25 16:44 32.90566 -83.52359 15903 ft 311 kts 317°
2026-04-25 16:44 32.92186 -83.54056 15567 ft 310 kts 317°
2026-04-25 16:44 32.93798 -83.55744 15232 ft 308 kts 317°
2026-04-25 16:44 32.95407 -83.57429 14891 ft 307 kts 317°
2026-04-25 16:45 32.97006 -83.59103 14557 ft 306 kts 317°
2026-04-25 16:45 32.98604 -83.60776 14222 ft 305 kts 317°
2026-04-25 16:45 33.00193 -83.62441 13880 ft 304 kts 317°
2026-04-25 16:45 33.01781 -83.64105 13533 ft 303 kts 317°
2026-04-25 16:46 33.03364 -83.65765 13159 ft 302 kts 317°
2026-04-25 16:46 33.04920 -83.67399 12808 ft 301 kts 317°
2026-04-25 16:46 33.06488 -83.69045 12477 ft 299 kts 317°
2026-04-25 16:46 33.07014 -83.69598 12361 ft 299 kts 317°
2026-04-25 16:47 33.09601 -83.72317 11817 ft 297 kts 317°
2026-04-25 16:47 33.11149 -83.73944 11482 ft 296 kts 317°
2026-04-25 16:47 33.12691 -83.75566 11244 ft 292 kts 317°
2026-04-25 16:47 33.14187 -83.77140 11076 ft 285 kts 317°
2026-04-25 16:48 33.15176 -83.78183 10860 ft 285 kts 316°
2026-04-25 16:48 33.16658 -83.79749 10563 ft 284 kts 317°
2026-04-25 16:48 33.18135 -83.81310 10261 ft 283 kts 316°
2026-04-25 16:48 33.19591 -83.82881 10050 ft 278 kts 314°
2026-04-25 16:49 33.20953 -83.84483 9785 ft 276 kts 313°
2026-04-25 16:49 33.22304 -83.86112 9474 ft 274 kts 313°
2026-04-25 16:49 33.23760 -83.87577 9173 ft 275 kts 327°
2026-04-25 16:49 33.25439 -83.88660 8905 ft 273 kts 330°
2026-04-25 16:50 33.27114 -83.89710 8625 ft 272 kts 330°
2026-04-25 16:50 33.28770 -83.90797 8337 ft 269 kts 321°
2026-04-25 16:50 33.30012 -83.92420 8077 ft 263 kts 305°
2026-04-25 16:50 33.31097 -83.94136 7831 ft 253 kts 297°
2026-04-25 16:51 33.31743 -83.96037 7578 ft 242 kts 291°
2026-04-25 16:51 33.32569 -83.97761 7294 ft 236 kts 303°
2026-04-25 16:51 33.33576 -83.99285 7025 ft 230 kts 308°
2026-04-25 16:51 33.34279 -84.00233 6846 ft 230 kts 309°
2026-04-25 16:52 33.35762 -84.02108 6511 ft 238 kts 315°
2026-04-25 16:52 33.37267 -84.02967 6221 ft 249 kts 351°
2026-04-25 16:52 33.39020 -84.03002 6074 ft 253 kts 358°
2026-04-25 16:52 33.40771 -84.03088 5985 ft 251 kts 345°
2026-04-25 16:53 33.43978 -84.04523 5908 ft 246 kts 334°
2026-04-25 16:53 33.45543 -84.05309 5663 ft 248 kts 334°
2026-04-25 16:53 33.47139 -84.06118 5408 ft 240 kts 334°
2026-04-25 16:54 33.48636 -84.06872 5159 ft 226 kts 334°
2026-04-25 16:54 33.50057 -84.07581 4972 ft 217 kts 334°
2026-04-25 16:54 33.51438 -84.08264 4796 ft 214 kts 334°
2026-04-25 16:54 33.52809 -84.08945 4623 ft 211 kts 334°
2026-04-25 16:55 33.54132 -84.09597 4435 ft 200 kts 334°
2026-04-25 16:55 33.55390 -84.10215 4215 ft 192 kts 334°
2026-04-25 16:55 33.56619 -84.10820 4062 ft 189 kts 334°
2026-04-25 16:55 33.57855 -84.11433 4010 ft 198 kts 334°
2026-04-25 16:56 33.59162 -84.12087 3998 ft 205 kts 334°
2026-04-25 16:56 33.60467 -84.12746 3968 ft 202 kts 333°
2026-04-25 16:56 33.61755 -84.13436 3982 ft 206 kts 333°
2026-04-25 16:56 33.63065 -84.14153 3986 ft 206 kts 332°
2026-04-25 16:57 33.64366 -84.14871 3976 ft 206 kts 332°
2026-04-25 16:57 33.65227 -84.15349 3984 ft 206 kts 332°
2026-04-25 16:57 33.66645 -84.16779 3547 ft 212 kts 283°
2026-04-25 16:57 33.66499 -84.18543 3353 ft 223 kts 246°
2026-04-25 16:58 33.65846 -84.20299 3154 ft 236 kts 246°
2026-04-25 16:58 33.65315 -84.22083 3091 ft 216 kts 252°
2026-04-25 16:58 33.64988 -84.23772 3072 ft 196 kts 260°
2026-04-25 16:58 33.64891 -84.25330 2926 ft 185 kts 267°
2026-04-25 16:59 33.64861 -84.26887 2604 ft 183 kts 269°
2026-04-25 16:59 33.64867 -84.28387 2329 ft 180 kts 268°
2026-04-25 16:59 33.64874 -84.29878 2234 ft 184 kts 269°
2026-04-25 16:59 33.64871 -84.31451 2242 ft 185 kts 268°
2026-04-25 17:00 33.64941 -84.33061 2310 ft 203 kts 272°
2026-04-25 17:00 33.64997 -84.34775 2278 ft 212 kts 268°
2026-04-25 17:00 33.65016 -84.36510 2051 ft 200 kts 268°
2026-04-25 17:00 33.64978 -84.38137 1676 ft 189 kts 268°
2026-04-25 17:01 33.64953 -84.39626 1321 ft 170 kts 269°
2026-04-25 17:01 33.64952 -84.40962 1032 ft 152 kts 270°
2026-04-25 17:01 33.64953 -84.42105 1018 ft 120 kts 268°
2026-04-25 17:01 33.64914 -84.42678 1015 ft 72 kts 251°